Date_Time,Julian_Date,Latitude,Longitude,Instrument_Depth,U,V,Speed,Direction
(yyyy-mm-dd hh:mn:ss UTC),(JD),(+ deg. North),(+ deg. East),(m),(cm/s),(cm/s),(cm/s),(deg True)
1981-04-04 19:00:00 UTC,2444699.291667,29.4519,-93.4333,0037,-15.87,21.84,27.0000,324.0000
1981-04-04 19:30:00 UTC,2444699.312500,29.4519,-93.4333,0037,-15.73,19.43,25.0000,321.0000
1981-04-04 20:00:00 UTC,2444699.333333,29.4519,-93.4333,0037,-16.35,14.72,22.0000,312.0000
1981-04-04 20:30:00 UTC,2444699.354167,29.4519,-93.4333,0037,-18.86,11.33,22.0000,301.0000
1981-04-04 21:00:00 UTC,2444699.375000,29.4519,-93.4333,0037,-22.25,8.99,24.0000,292.0000
1981-04-04 21:30:00 UTC,2444699.395833,29.4519,-93.4333,0037,-23.56,4.58,24.0000,281.0000
1981-04-04 22:00:00 UTC,2444699.416667,29.4519,-93.4333,0037,-24.00,0.42,24.0000,271.0000
1981-04-04 22:30:00 UTC,2444699.437500,29.4519,-93.4333,0037,-23.99,-0.84,24.0000,268.0000
1981-04-04 23:00:00 UTC,2444699.458333,29.4519,-93.4333,0037,-24.00,-0.00,24.0000,270.0000
1981-04-04 23:30:00 UTC,2444699.479167,29.4519,-93.4333,0037,-20.99,0.73,21.0000,272.0000
1981-04-05 00:00:00 UTC,2444699.500000,29.4519,-93.4333,0037,-19.97,1.05,20.0000,273.0000
1981-04-05 00:30:00 UTC,2444699.520833,29.4519,-93.4333,0037,-20.97,1.10,21.0000,273.0000
1981-04-05 01:00:00 UTC,2444699.541667,29.4519,-93.4333,0037,-19.92,1.74,20.0000,275.0000
1981-04-05 01:30:00 UTC,2444699.562500,29.4519,-93.4333,0037,-17.67,3.43,18.0000,281.0000
1981-04-05 02:00:00 UTC,2444699.583333,29.4519,-93.4333,0037,-17.47,4.35,18.0000,284.0000
1981-04-05 02:30:00 UTC,2444699.604167,29.4519,-93.4333,0037,-17.61,3.74,18.0000,282.0000
1981-04-05 03:00:00 UTC,2444699.625000,29.4519,-93.4333,0037,-18.44,4.60,19.0000,284.0000
1981-04-05 03:30:00 UTC,2444699.645833,29.4519,-93.4333,0037,-18.07,5.87,19.0000,288.0000
1981-04-05 04:00:00 UTC,2444699.666667,29.4519,-93.4333,0037,-16.80,6.45,18.0000,291.0000
1981-04-05 04:30:00 UTC,2444699.687500,29.4519,-93.4333,0037,-15.15,7.72,17.0000,297.0000
1981-04-05 05:00:00 UTC,2444699.708333,29.4519,-93.4333,0037,-12.44,8.39,15.0000,304.0000
1981-04-05 05:30:00 UTC,2444699.729167,29.4519,-93.4333,0037,-10.38,7.82,13.0000,307.0000
1981-04-05 06:00:00 UTC,2444699.750000,29.4519,-93.4333,0037,-9.43,5.67,11.0000,301.0000
1981-04-05 06:30:00 UTC,2444699.770833,29.4519,-93.4333,0037,-8.77,2.02,9.0000,283.0000
1981-04-05 07:00:00 UTC,2444699.791667,29.4519,-93.4333,0037,-9.88,-1.56,10.0000,261.0000
1981-04-05 07:30:00 UTC,2444699.812500,29.4519,-93.4333,0037,-10.05,-4.47,11.0000,246.0000
1981-04-05 08:00:00 UTC,2444699.833333,29.4519,-93.4333,0037,-11.74,-7.62,14.0000,237.0000
1981-04-05 08:30:00 UTC,2444699.854167,29.4519,-93.4333,0037,-12.94,-9.40,16.0000,234.0000
1981-04-05 09:00:00 UTC,2444699.875000,29.4519,-93.4333,0037,-14.18,-11.08,18.0000,232.0000
1981-04-05 09:30:00 UTC,2444699.895833,29.4519,-93.4333,0037,-14.34,-12.47,19.0000,229.0000
1981-04-05 10:00:00 UTC,2444699.916667,29.4519,-93.4333,0037,-14.59,-15.11,21.0000,224.0000
1981-04-05 10:30:00 UTC,2444699.937500,29.4519,-93.4333,0037,-14.78,-17.62,23.0000,220.0000
1981-04-05 11:00:00 UTC,2444699.958333,29.4519,-93.4333,0037,-15.05,-19.97,25.0000,217.0000
1981-04-05 11:30:00 UTC,2444699.979167,29.4519,-93.4333,0037,-17.24,-22.06,28.0000,218.0000
1981-04-05 12:00:00 UTC,2444700.000000,29.4519,-93.4333,0037,-19.93,-23.75,31.0000,220.0000
1981-04-05 12:30:00 UTC,2444700.020833,29.4519,-93.4333,0037,-23.19,-24.87,34.0000,223.0000
1981-04-05 13:00:00 UTC,2444700.041667,29.4519,-93.4333,0037,-28.34,-23.78,37.0000,230.0000
1981-04-05 13:30:00 UTC,2444700.062500,29.4519,-93.4333,0037,-33.55,-21.79,40.0000,237.0000
1981-04-05 14:00:00 UTC,2444700.083333,29.4519,-93.4333,0037,-35.32,-18.78,40.0000,242.0000
1981-04-05 14:30:00 UTC,2444700.104167,29.4519,-93.4333,0037,-37.16,-17.33,41.0000,245.0000
1981-04-05 15:00:00 UTC,2444700.125000,29.4519,-93.4333,0037,-36.41,-13.98,39.0000,249.0000
1981-04-05 15:30:00 UTC,2444700.145833,29.4519,-93.4333,0037,-33.96,-8.47,35.0000,256.0000
1981-04-05 16:00:00 UTC,2444700.166667,29.4519,-93.4333,0037,-33.67,-4.73,34.0000,262.0000
1981-04-05 16:30:00 UTC,2444700.187500,29.4519,-93.4333,0037,-32.92,-2.30,33.0000,266.0000
1981-04-05 17:00:00 UTC,2444700.208333,29.4519,-93.4333,0037,-32.99,-0.58,33.0000,269.0000
1981-04-05 17:30:00 UTC,2444700.229167,29.4519,-93.4333,0037,-31.98,1.12,32.0000,272.0000
1981-04-05 18:00:00 UTC,2444700.250000,29.4519,-93.4333,0037,-27.89,2.44,28.0000,275.0000
1981-04-05 18:30:00 UTC,2444700.270833,29.4519,-93.4333,0037,-23.91,2.09,24.0000,275.0000
1981-04-05 19:00:00 UTC,2444700.291667,29.4519,-93.4333,0037,-22.97,1.20,23.0000,273.0000
1981-04-05 19:30:00 UTC,2444700.312500,29.4519,-93.4333,0037,-21.99,0.77,22.0000,272.0000
1981-04-05 20:00:00 UTC,2444700.333333,29.4519,-93.4333,0037,-22.00,-0.00,22.0000,270.0000
1981-04-05 20:30:00 UTC,2444700.354167,29.4519,-93.4333,0037,-22.91,-2.00,23.0000,265.0000
1981-04-05 21:00:00 UTC,2444700.375000,29.4519,-93.4333,0037,-24.69,-3.91,25.0000,261.0000
1981-04-05 21:30:00 UTC,2444700.395833,29.4519,-93.4333,0037,-24.36,-5.62,25.0000,257.0000
1981-04-05 22:00:00 UTC,2444700.416667,29.4519,-93.4333,0037,-22.83,-7.42,24.0000,252.0000
1981-04-05 22:30:00 UTC,2444700.437500,29.4519,-93.4333,0037,-22.41,-8.60,24.0000,249.0000
1981-04-05 23:00:00 UTC,2444700.458333,29.4519,-93.4333,0037,-24.11,-9.74,26.0000,248.0000
1981-04-05 23:30:00 UTC,2444700.479167,29.4519,-93.4333,0037,-24.43,-8.89,26.0000,250.0000
1981-04-06 00:00:00 UTC,2444700.500000,29.4519,-93.4333,0037,-24.43,-8.89,26.0000,250.0000
1981-04-06 00:30:00 UTC,2444700.520833,29.4519,-93.4333,0037,-24.11,-9.74,26.0000,248.0000
1981-04-06 01:00:00 UTC,2444700.541667,29.4519,-93.4333,0037,-22.66,-10.57,25.0000,245.0000
1981-04-06 01:30:00 UTC,2444700.562500,29.4519,-93.4333,0037,-21.19,-11.27,24.0000,242.0000
1981-04-06 02:00:00 UTC,2444700.583333,29.4519,-93.4333,0037,-20.12,-11.15,23.0000,241.0000
1981-04-06 02:30:00 UTC,2444700.604167,29.4519,-93.4333,0037,-19.60,-9.99,22.0000,243.0000
1981-04-06 03:00:00 UTC,2444700.625000,29.4519,-93.4333,0037,-18.79,-6.84,20.0000,250.0000
1981-04-06 03:30:00 UTC,2444700.645833,29.4519,-93.4333,0037,-17.78,-2.82,18.0000,261.0000
1981-04-06 04:00:00 UTC,2444700.666667,29.4519,-93.4333,0037,-16.00,0.28,16.0000,271.0000
1981-04-06 04:30:00 UTC,2444700.687500,29.4519,-93.4333,0037,-13.69,2.91,14.0000,282.0000
1981-04-06 05:00:00 UTC,2444700.708333,29.4519,-93.4333,0037,-11.78,5.49,13.0000,295.0000
1981-04-06 05:30:00 UTC,2444700.729167,29.4519,-93.4333,0037,-11.18,8.43,14.0000,307.0000
1981-04-06 06:00:00 UTC,2444700.750000,29.4519,-93.4333,0037,-9.90,9.90,14.0000,315.0000
1981-04-06 06:30:00 UTC,2444700.770833,29.4519,-93.4333,0037,-8.81,10.88,14.0000,321.0000
1981-04-06 07:00:00 UTC,2444700.791667,29.4519,-93.4333,0037,-8.00,10.24,13.0000,322.0000
1981-04-06 07:30:00 UTC,2444700.812500,29.4519,-93.4333,0037,-7.50,8.04,11.0000,317.0000
1981-04-06 08:00:00 UTC,2444700.833333,29.4519,-93.4333,0037,-8.09,5.88,10.0000,306.0000
1981-04-06 08:30:00 UTC,2444700.854167,29.4519,-93.4333,0037,-9.46,3.26,10.0000,289.0000
1981-04-06 09:00:00 UTC,2444700.875000,29.4519,-93.4333,0037,-11.95,1.05,12.0000,275.0000
1981-04-06 09:30:00 UTC,2444700.895833,29.4519,-93.4333,0037,-14.00,-0.24,14.0000,269.0000
1981-04-06 10:00:00 UTC,2444700.916667,29.4519,-93.4333,0037,-14.96,-1.05,15.0000,266.0000
1981-04-06 10:30:00 UTC,2444700.937500,29.4519,-93.4333,0037,-15.84,-2.23,16.0000,262.0000
1981-04-06 11:00:00 UTC,2444700.958333,29.4519,-93.4333,0037,-15.38,-4.41,16.0000,254.0000
1981-04-06 11:30:00 UTC,2444700.979167,29.4519,-93.4333,0037,-15.53,-6.91,17.0000,246.0000
1981-04-06 12:00:00 UTC,2444701.000000,29.4519,-93.4333,0037,-17.08,-8.33,19.0000,244.0000
1981-04-06 12:30:00 UTC,2444701.020833,29.4519,-93.4333,0037,-18.87,-9.21,21.0000,244.0000
1981-04-06 13:00:00 UTC,2444701.041667,29.4519,-93.4333,0037,-20.85,-9.72,23.0000,245.0000
1981-04-06 13:30:00 UTC,2444701.062500,29.4519,-93.4333,0037,-21.93,-9.76,24.0000,246.0000
1981-04-06 14:00:00 UTC,2444701.083333,29.4519,-93.4333,0037,-22.25,-8.99,24.0000,248.0000
1981-04-06 14:30:00 UTC,2444701.104167,29.4519,-93.4333,0037,-21.61,-7.87,23.0000,250.0000
1981-04-06 15:00:00 UTC,2444701.125000,29.4519,-93.4333,0037,-21.15,-6.06,22.0000,254.0000
1981-04-06 15:30:00 UTC,2444701.145833,29.4519,-93.4333,0037,-20.68,-3.65,21.0000,260.0000
1981-04-06 16:00:00 UTC,2444701.166667,29.4519,-93.4333,0037,-20.97,-1.10,21.0000,267.0000
1981-04-06 16:30:00 UTC,2444701.187500,29.4519,-93.4333,0037,-20.97,1.10,21.0000,273.0000
1981-04-06 17:00:00 UTC,2444701.208333,29.4519,-93.4333,0037,-19.95,1.40,20.0000,274.0000
1981-04-06 17:30:00 UTC,2444701.229167,29.4519,-93.4333,0037,-19.97,1.05,20.0000,273.0000
1981-04-06 18:00:00 UTC,2444701.250000,29.4519,-93.4333,0037,-20.92,1.83,21.0000,275.0000
1981-04-06 18:30:00 UTC,2444701.270833,29.4519,-93.4333,0037,-22.41,5.17,23.0000,283.0000
1981-04-06 19:00:00 UTC,2444701.291667,29.4519,-93.4333,0037,-24.43,8.89,26.0000,290.0000
1981-04-06 19:30:00 UTC,2444701.312500,29.4519,-93.4333,0037,-25.77,10.94,28.0000,293.0000
1981-04-06 20:00:00 UTC,2444701.333333,29.4519,-93.4333,0037,-25.03,10.11,27.0000,292.0000
1981-04-06 20:30:00 UTC,2444701.354167,29.4519,-93.4333,0037,-21.47,8.24,23.0000,291.0000
1981-04-06 21:00:00 UTC,2444701.375000,29.4519,-93.4333,0037,-18.26,5.24,19.0000,286.0000
1981-04-06 21:30:00 UTC,2444701.395833,29.4519,-93.4333,0037,-19.70,3.47,20.0000,280.0000
1981-04-06 22:00:00 UTC,2444701.416667,29.4519,-93.4333,0037,-21.95,1.53,22.0000,274.0000
1981-04-06 22:30:00 UTC,2444701.437500,29.4519,-93.4333,0037,-20.80,-2.92,21.0000,262.0000
1981-04-06 23:00:00 UTC,2444701.458333,29.4519,-93.4333,0037,-18.54,-7.49,20.0000,248.0000
1981-04-06 23:30:00 UTC,2444701.479167,29.4519,-93.4333,0037,-16.93,-8.63,19.0000,243.0000
1981-04-07 00:00:00 UTC,2444701.500000,29.4519,-93.4333,0037,-18.41,-7.81,20.0000,247.0000
1981-04-07 00:30:00 UTC,2444701.520833,29.4519,-93.4333,0037,-22.09,-9.38,24.0000,247.0000
1981-04-07 01:00:00 UTC,2444701.541667,29.4519,-93.4333,0037,-24.06,-12.26,27.0000,243.0000
1981-04-07 01:30:00 UTC,2444701.562500,29.4519,-93.4333,0037,-23.75,-14.84,28.0000,238.0000
1981-04-07 02:00:00 UTC,2444701.583333,29.4519,-93.4333,0037,-21.81,-14.16,26.0000,237.0000
1981-04-07 02:30:00 UTC,2444701.604167,29.4519,-93.4333,0037,-20.35,-12.72,24.0000,238.0000
1981-04-07 03:00:00 UTC,2444701.625000,29.4519,-93.4333,0037,-19.24,-10.67,22.0000,241.0000
1981-04-07 03:30:00 UTC,2444701.645833,29.4519,-93.4333,0037,-18.54,-7.49,20.0000,248.0000
1981-04-07 04:00:00 UTC,2444701.666667,29.4519,-93.4333,0037,-17.61,-3.74,18.0000,258.0000
1981-04-07 04:30:00 UTC,2444701.687500,29.4519,-93.4333,0037,-17.98,-0.94,18.0000,267.0000
1981-04-07 05:00:00 UTC,2444701.708333,29.4519,-93.4333,0037,-17.99,0.63,18.0000,272.0000
1981-04-07 05:30:00 UTC,2444701.729167,29.4519,-93.4333,0037,-18.90,1.99,19.0000,276.0000
1981-04-07 06:00:00 UTC,2444701.750000,29.4519,-93.4333,0037,-17.39,4.66,18.0000,285.0000
1981-04-07 06:30:00 UTC,2444701.770833,29.4519,-93.4333,0037,-16.04,8.17,18.0000,297.0000
1981-04-07 07:00:00 UTC,2444701.791667,29.4519,-93.4333,0037,-14.92,10.07,18.0000,304.0000
1981-04-07 07:30:00 UTC,2444701.812500,29.4519,-93.4333,0037,-15.17,11.43,19.0000,307.0000
1981-04-07 08:00:00 UTC,2444701.833333,29.4519,-93.4333,0037,-14.77,11.96,19.0000,309.0000
1981-04-07 08:30:00 UTC,2444701.854167,29.4519,-93.4333,0037,-13.79,11.57,18.0000,310.0000
1981-04-07 09:00:00 UTC,2444701.875000,29.4519,-93.4333,0037,-11.32,9.84,15.0000,311.0000
1981-04-07 09:30:00 UTC,2444701.895833,29.4519,-93.4333,0037,-9.66,8.70,13.0000,312.0000
1981-04-07 10:00:00 UTC,2444701.916667,29.4519,-93.4333,0037,-7.91,7.64,11.0000,314.0000
1981-04-07 10:30:00 UTC,2444701.937500,29.4519,-93.4333,0037,-7.07,7.07,10.0000,315.0000
1981-04-07 11:00:00 UTC,2444701.958333,29.4519,-93.4333,0037,-6.79,5.90,9.0000,311.0000
1981-04-07 11:30:00 UTC,2444701.979167,29.4519,-93.4333,0037,-7.00,3.88,8.0000,299.0000
1981-04-07 12:00:00 UTC,2444702.000000,29.4519,-93.4333,0037,-7.00,0.12,7.0000,271.0000
1981-04-07 12:30:00 UTC,2444702.020833,29.4519,-93.4333,0037,-7.66,-6.43,10.0000,230.0000
1981-04-07 13:00:00 UTC,2444702.041667,29.4519,-93.4333,0037,-8.60,-12.29,15.0000,215.0000
1981-04-07 13:30:00 UTC,2444702.062500,29.4519,-93.4333,0037,-11.70,-14.97,19.0000,218.0000
1981-04-07 14:00:00 UTC,2444702.083333,29.4519,-93.4333,0037,-14.85,-14.85,21.0000,225.0000
1981-04-07 14:30:00 UTC,2444702.104167,29.4519,-93.4333,0037,-15.85,-13.78,21.0000,229.0000
1981-04-07 15:00:00 UTC,2444702.125000,29.4519,-93.4333,0037,-14.77,-11.96,19.0000,231.0000
1981-04-07 15:30:00 UTC,2444702.145833,29.4519,-93.4333,0037,-12.29,-8.60,15.0000,235.0000
1981-04-07 16:00:00 UTC,2444702.166667,29.4519,-93.4333,0037,-10.60,-5.63,12.0000,242.0000
1981-04-07 16:30:00 UTC,2444702.187500,29.4519,-93.4333,0037,-11.05,-4.69,12.0000,247.0000
1981-04-07 17:00:00 UTC,2444702.208333,29.4519,-93.4333,0037,-12.43,-3.80,13.0000,253.0000
1981-04-07 17:30:00 UTC,2444702.229167,29.4519,-93.4333,0037,-14.89,-1.83,15.0000,263.0000
1981-04-07 18:00:00 UTC,2444702.250000,29.4519,-93.4333,0037,-15.94,1.39,16.0000,275.0000
1981-04-07 18:30:00 UTC,2444702.270833,29.4519,-93.4333,0037,-16.50,4.11,17.0000,284.0000
1981-04-07 19:00:00 UTC,2444702.291667,29.4519,-93.4333,0037,-17.39,4.66,18.0000,285.0000
1981-04-07 19:30:00 UTC,2444702.312500,29.4519,-93.4333,0037,-17.61,3.74,18.0000,282.0000
1981-04-07 20:00:00 UTC,2444702.333333,29.4519,-93.4333,0037,-17.73,3.13,18.0000,280.0000
1981-04-07 20:30:00 UTC,2444702.354167,29.4519,-93.4333,0037,-18.86,2.32,19.0000,277.0000
1981-04-07 21:00:00 UTC,2444702.375000,29.4519,-93.4333,0037,-21.92,1.92,22.0000,275.0000
1981-04-07 21:30:00 UTC,2444702.395833,29.4519,-93.4333,0037,-22.97,1.20,23.0000,273.0000
1981-04-07 22:00:00 UTC,2444702.416667,29.4519,-93.4333,0037,-22.00,-0.00,22.0000,270.0000
1981-04-07 22:30:00 UTC,2444702.437500,29.4519,-93.4333,0037,-20.97,-1.10,21.0000,267.0000
1981-04-07 23:00:00 UTC,2444702.458333,29.4519,-93.4333,0037,-20.88,-2.20,21.0000,264.0000
1981-04-07 23:30:00 UTC,2444702.479167,29.4519,-93.4333,0037,-20.61,-4.01,21.0000,259.0000
1981-04-08 00:00:00 UTC,2444702.500000,29.4519,-93.4333,0037,-24.15,-6.47,25.0000,255.0000
1981-04-08 00:30:00 UTC,2444702.520833,29.4519,-93.4333,0037,-27.07,-10.39,29.0000,249.0000
1981-04-08 01:00:00 UTC,2444702.541667,29.4519,-93.4333,0037,-27.14,-16.96,32.0000,238.0000
1981-04-08 01:30:00 UTC,2444702.562500,29.4519,-93.4333,0037,-27.15,-20.46,34.0000,233.0000
1981-04-08 02:00:00 UTC,2444702.583333,29.4519,-93.4333,0037,-28.32,-20.57,35.0000,234.0000
1981-04-08 02:30:00 UTC,2444702.604167,29.4519,-93.4333,0037,-29.02,-19.57,35.0000,236.0000
1981-04-08 03:00:00 UTC,2444702.625000,29.4519,-93.4333,0037,-30.31,-17.50,35.0000,240.0000
1981-04-08 03:30:00 UTC,2444702.645833,29.4519,-93.4333,0037,-31.72,-14.79,35.0000,245.0000
1981-04-08 04:00:00 UTC,2444702.666667,29.4519,-93.4333,0037,-32.34,-10.51,34.0000,252.0000
1981-04-08 04:30:00 UTC,2444702.687500,29.4519,-93.4333,0037,-32.15,-7.42,33.0000,257.0000
1981-04-08 05:00:00 UTC,2444702.708333,29.4519,-93.4333,0037,-30.62,-4.85,31.0000,261.0000
1981-04-08 05:30:00 UTC,2444702.729167,29.4519,-93.4333,0037,-28.78,-3.53,29.0000,263.0000
1981-04-08 06:00:00 UTC,2444702.750000,29.4519,-93.4333,0037,-24.90,-2.18,25.0000,265.0000
1981-04-08 06:30:00 UTC,2444702.770833,29.4519,-93.4333,0037,-21.00,-0.37,21.0000,269.0000
1981-04-08 07:00:00 UTC,2444702.791667,29.4519,-93.4333,0037,-15.94,1.39,16.0000,275.0000
1981-04-08 07:30:00 UTC,2444702.812500,29.4519,-93.4333,0037,-13.83,2.19,14.0000,279.0000
1981-04-08 08:00:00 UTC,2444702.833333,29.4519,-93.4333,0037,-11.69,2.70,12.0000,283.0000
1981-04-08 08:30:00 UTC,2444702.854167,29.4519,-93.4333,0037,-11.28,4.10,12.0000,290.0000
1981-04-08 09:00:00 UTC,2444702.875000,29.4519,-93.4333,0037,-10.88,5.07,12.0000,295.0000
1981-04-08 09:30:00 UTC,2444702.895833,29.4519,-93.4333,0037,-10.88,5.07,12.0000,295.0000
1981-04-08 10:00:00 UTC,2444702.916667,29.4519,-93.4333,0037,-11.13,4.50,12.0000,292.0000
1981-04-08 10:30:00 UTC,2444702.937500,29.4519,-93.4333,0037,-10.27,3.94,11.0000,291.0000
1981-04-08 11:00:00 UTC,2444702.958333,29.4519,-93.4333,0037,-7.47,2.87,8.0000,291.0000
1981-04-08 11:30:00 UTC,2444702.979167,29.4519,-93.4333,0037,-4.85,1.21,5.0000,284.0000
1981-04-08 12:00:00 UTC,2444703.000000,29.4519,-93.4333,0037,-2.98,0.37,3.0000,277.0000
1981-04-08 12:30:00 UTC,2444703.020833,29.4519,-93.4333,0037,-0.69,-0.72,1.0000,224.0000
1981-04-08 13:00:00 UTC,2444703.041667,29.4519,-93.4333,0037,-1.79,-4.67,5.0000,201.0000
1981-04-08 13:30:00 UTC,2444703.062500,29.4519,-93.4333,0037,-3.58,-9.34,10.0000,201.0000
1981-04-08 14:00:00 UTC,2444703.083333,29.4519,-93.4333,0037,-2.90,-11.64,12.0000,194.0000
1981-04-08 14:30:00 UTC,2444703.104167,29.4519,-93.4333,0037,-2.03,-12.84,13.0000,189.0000
1981-04-08 15:00:00 UTC,2444703.125000,29.4519,-93.4333,0037,-2.43,-13.79,14.0000,190.0000
1981-04-08 15:30:00 UTC,2444703.145833,29.4519,-93.4333,0037,-3.37,-14.62,15.0000,193.0000
1981-04-08 16:00:00 UTC,2444703.166667,29.4519,-93.4333,0037,-5.47,-15.04,16.0000,200.0000
1981-04-08 16:30:00 UTC,2444703.187500,29.4519,-93.4333,0037,-8.24,-14.87,17.0000,209.0000
1981-04-08 17:00:00 UTC,2444703.208333,29.4519,-93.4333,0037,-9.75,-13.93,17.0000,215.0000
1981-04-08 17:30:00 UTC,2444703.229167,29.4519,-93.4333,0037,-9.99,-13.75,17.0000,216.0000
1981-04-08 18:00:00 UTC,2444703.250000,29.4519,-93.4333,0037,-8.24,-13.71,16.0000,211.0000
1981-04-08 18:30:00 UTC,2444703.270833,29.4519,-93.4333,0037,-8.00,-13.86,16.0000,210.0000
1981-04-08 19:00:00 UTC,2444703.291667,29.4519,-93.4333,0037,-8.60,-12.29,15.0000,215.0000
1981-04-08 19:30:00 UTC,2444703.312500,29.4519,-93.4333,0037,-9.23,-11.82,15.0000,218.0000
1981-04-08 20:00:00 UTC,2444703.333333,29.4519,-93.4333,0037,-9.64,-11.49,15.0000,220.0000
1981-04-08 20:30:00 UTC,2444703.354167,29.4519,-93.4333,0037,-10.61,-10.61,15.0000,225.0000
1981-04-08 21:00:00 UTC,2444703.375000,29.4519,-93.4333,0037,-10.61,-10.61,15.0000,225.0000
1981-04-08 21:30:00 UTC,2444703.395833,29.4519,-93.4333,0037,-12.23,-11.81,17.0000,226.0000
1981-04-08 22:00:00 UTC,2444703.416667,29.4519,-93.4333,0037,-15.09,-13.12,20.0000,229.0000
1981-04-08 22:30:00 UTC,2444703.437500,29.4519,-93.4333,0037,-16.85,-14.14,22.0000,230.0000
1981-04-08 23:00:00 UTC,2444703.458333,29.4519,-93.4333,0037,-18.11,-15.75,24.0000,229.0000
1981-04-08 23:30:00 UTC,2444703.479167,29.4519,-93.4333,0037,-18.58,-16.73,25.0000,228.0000
1981-04-09 00:00:00 UTC,2444703.500000,29.4519,-93.4333,0037,-19.02,-17.73,26.0000,227.0000
1981-04-09 00:30:00 UTC,2444703.520833,29.4519,-93.4333,0037,-17.68,-17.68,25.0000,225.0000
1981-04-09 01:00:00 UTC,2444703.541667,29.4519,-93.4333,0037,-17.37,-17.98,25.0000,224.0000
1981-04-09 01:30:00 UTC,2444703.562500,29.4519,-93.4333,0037,-16.73,-18.58,25.0000,222.0000
1981-04-09 02:00:00 UTC,2444703.583333,29.4519,-93.4333,0037,-18.41,-19.75,27.0000,223.0000
1981-04-09 02:30:00 UTC,2444703.604167,29.4519,-93.4333,0037,-20.86,-20.15,29.0000,226.0000
1981-04-09 03:00:00 UTC,2444703.625000,29.4519,-93.4333,0037,-24.15,-20.99,32.0000,229.0000
1981-04-09 03:30:00 UTC,2444703.645833,29.4519,-93.4333,0037,-26.42,-21.40,34.0000,231.0000
1981-04-09 04:00:00 UTC,2444703.666667,29.4519,-93.4333,0037,-26.21,-18.35,32.0000,235.0000
1981-04-09 04:30:00 UTC,2444703.687500,29.4519,-93.4333,0037,-26.28,-12.26,29.0000,245.0000
1981-04-09 05:00:00 UTC,2444703.708333,29.4519,-93.4333,0037,-26.20,-6.53,27.0000,256.0000
1981-04-09 05:30:00 UTC,2444703.729167,29.4519,-93.4333,0037,-23.94,-1.67,24.0000,266.0000
1981-04-09 06:00:00 UTC,2444703.750000,29.4519,-93.4333,0037,-20.95,1.46,21.0000,274.0000
1981-04-09 06:30:00 UTC,2444703.770833,29.4519,-93.4333,0037,-20.68,3.65,21.0000,280.0000
1981-04-09 07:00:00 UTC,2444703.791667,29.4519,-93.4333,0037,-20.38,5.08,21.0000,284.0000
1981-04-09 07:30:00 UTC,2444703.812500,29.4519,-93.4333,0037,-20.19,5.79,21.0000,286.0000
1981-04-09 08:00:00 UTC,2444703.833333,29.4519,-93.4333,0037,-17.96,6.19,19.0000,289.0000
1981-04-09 08:30:00 UTC,2444703.854167,29.4519,-93.4333,0037,-16.57,7.03,18.0000,293.0000
1981-04-09 09:00:00 UTC,2444703.875000,29.4519,-93.4333,0037,-16.57,7.03,18.0000,293.0000
1981-04-09 09:30:00 UTC,2444703.895833,29.4519,-93.4333,0037,-15.76,6.37,17.0000,292.0000
1981-04-09 10:00:00 UTC,2444703.916667,29.4519,-93.4333,0037,-14.00,5.38,15.0000,291.0000
1981-04-09 10:30:00 UTC,2444703.937500,29.4519,-93.4333,0037,-13.24,4.56,14.0000,289.0000
1981-04-09 11:00:00 UTC,2444703.958333,29.4519,-93.4333,0037,-11.35,3.91,12.0000,289.0000
1981-04-09 11:30:00 UTC,2444703.979167,29.4519,-93.4333,0037,-9.51,3.09,10.0000,288.0000
1981-04-09 12:00:00 UTC,2444704.000000,29.4519,-93.4333,0037,-7.94,0.97,8.0000,277.0000
1981-04-09 12:30:00 UTC,2444704.020833,29.4519,-93.4333,0037,-6.93,-0.97,7.0000,262.0000
1981-04-09 13:00:00 UTC,2444704.041667,29.4519,-93.4333,0037,-6.39,-2.85,7.0000,246.0000
1981-04-09 13:30:00 UTC,2444704.062500,29.4519,-93.4333,0037,-4.66,-3.78,6.0000,231.0000
1981-04-09 14:00:00 UTC,2444704.083333,29.4519,-93.4333,0037,-3.01,-3.99,5.0000,217.0000
1981-04-09 14:30:00 UTC,2444704.104167,29.4519,-93.4333,0037,-3.71,-5.94,7.0000,212.0000
1981-04-09 15:00:00 UTC,2444704.125000,29.4519,-93.4333,0037,-4.12,-6.86,8.0000,211.0000
1981-04-09 15:30:00 UTC,2444704.145833,29.4519,-93.4333,0037,-3.52,-8.28,9.0000,203.0000
1981-04-09 16:00:00 UTC,2444704.166667,29.4519,-93.4333,0037,-1.10,-8.93,9.0000,187.0000
1981-04-09 16:30:00 UTC,2444704.187500,29.4519,-93.4333,0037,1.22,-9.93,10.0000,173.0000
1981-04-09 17:00:00 UTC,2444704.208333,29.4519,-93.4333,0037,2.10,-10.80,11.0000,169.0000
1981-04-09 17:30:00 UTC,2444704.229167,29.4519,-93.4333,0037,1.15,-10.94,11.0000,174.0000
1981-04-09 18:00:00 UTC,2444704.250000,29.4519,-93.4333,0037,1.25,-11.93,12.0000,174.0000
1981-04-09 18:30:00 UTC,2444704.270833,29.4519,-93.4333,0037,1.34,-10.92,11.0000,173.0000
1981-04-09 19:00:00 UTC,2444704.291667,29.4519,-93.4333,0037,1.15,-10.94,11.0000,174.0000
1981-04-09 19:30:00 UTC,2444704.312500,29.4519,-93.4333,0037,0.42,-11.99,12.0000,178.0000
1981-04-09 20:00:00 UTC,2444704.333333,29.4519,-93.4333,0037,-1.13,-12.95,13.0000,185.0000
1981-04-09 20:30:00 UTC,2444704.354167,29.4519,-93.4333,0037,-2.67,-13.74,14.0000,191.0000
1981-04-09 21:00:00 UTC,2444704.375000,29.4519,-93.4333,0037,-3.62,-13.52,14.0000,195.0000
1981-04-09 21:30:00 UTC,2444704.395833,29.4519,-93.4333,0037,-4.45,-12.22,13.0000,200.0000
1981-04-09 22:00:00 UTC,2444704.416667,29.4519,-93.4333,0037,-5.70,-11.68,13.0000,206.0000
1981-04-09 22:30:00 UTC,2444704.437500,29.4519,-93.4333,0037,-6.88,-9.83,12.0000,215.0000
1981-04-09 23:00:00 UTC,2444704.458333,29.4519,-93.4333,0037,-8.49,-8.49,12.0000,225.0000
1981-04-09 23:30:00 UTC,2444704.479167,29.4519,-93.4333,0037,-10.78,-7.27,13.0000,236.0000
1981-04-10 00:00:00 UTC,2444704.500000,29.4519,-93.4333,0037,-11.68,-5.70,13.0000,244.0000
1981-04-10 00:30:00 UTC,2444704.520833,29.4519,-93.4333,0037,-13.07,-5.02,14.0000,249.0000
1981-04-10 01:00:00 UTC,2444704.541667,29.4519,-93.4333,0037,-13.39,-4.09,14.0000,253.0000
1981-04-10 01:30:00 UTC,2444704.562500,29.4519,-93.4333,0037,-13.58,-3.39,14.0000,256.0000
1981-04-10 02:00:00 UTC,2444704.583333,29.4519,-93.4333,0037,-13.69,-2.91,14.0000,258.0000
1981-04-10 02:30:00 UTC,2444704.604167,29.4519,-93.4333,0037,-13.83,-2.19,14.0000,261.0000
1981-04-10 03:00:00 UTC,2444704.625000,29.4519,-93.4333,0037,-15.80,-2.50,16.0000,261.0000
1981-04-10 03:30:00 UTC,2444704.645833,29.4519,-93.4333,0037,-16.56,-3.82,17.0000,257.0000
1981-04-10 04:00:00 UTC,2444704.666667,29.4519,-93.4333,0037,-18.17,-5.56,19.0000,253.0000
1981-04-10 04:30:00 UTC,2444704.687500,29.4519,-93.4333,0037,-20.08,-6.14,21.0000,253.0000
1981-04-10 05:00:00 UTC,2444704.708333,29.4519,-93.4333,0037,-20.61,-4.01,21.0000,259.0000
1981-04-10 05:30:00 UTC,2444704.729167,29.4519,-93.4333,0037,-20.97,-1.10,21.0000,267.0000